Location: Thunder Bay
(48.3809°N, 89.2477°W)
Time: 12:34:46
(UTC-04:00)

Tiangong - Visible Passes

Search period start: 04 August 2021 00:00
Search period end: 14 August 2021 00:00
Orbit: 373 x 386 km, 41.5° (Epoch: 04 August)

Date Brightness Start Highest point End Pass type
(mag) Time Alt. Az. Time Alt. Az. Time Alt. Az.
09 Aug 3.4 06:01:52 10° SSW 06:03:33 14° SSE 06:05:15 10° SE visible
11 Aug 3.0 05:35:47 13° SSW 05:37:14 17° SSE 05:39:24 10° ESE visible
12 Aug 3.7 04:37:12 11° SE 04:37:12 11° SE 04:37:37 10° SE visible
12 Aug 2.6 06:09:36 10° SW 06:12:08 22° S 06:14:40 10° ESE visible
13 Aug 2.7 05:10:42 20° S 05:10:53 20° S 05:13:17 10° ESE visible
